030601 048  0.4-  0.0     030731 636  1.2-  0.8+    040521 415  0.5-  0.1+  

030602 H72  1.1+  0.6-    030731 636  0.5-  0.0     040523 467  0.2-  0.4-  

030602 H72  0.4+  0.2-    030731 636  1.1-  0.3+    040523 467  0.1+  0.5-  

030602 H72  0.2-  0.6-    030801 372  0.9-  1.0-    040523 467  0.4+  0.4-  

030602 H72  0.2+  0.5-    030801 213  0.0   0.3-    040526 415  0.0   0.7+  

030602 H72  0.4+  0.5-    030801 213  0.5-  0.2+    040526 415  0.5-  1.2-  

030602 H72  0.2+  0.6-    030801 213  0.4+  0.2-    040526 415 (2.5-  0.1+) 

030602 H72  0.1+  0.6-    030801 232  0.2-  0.9+    040527 415  0.6-  0.3-  

030602 048  0.1+  0.2-    030801 232  0.2+  0.5+    040527 415  0.5-  0.9+  

030602 048  0.1-  0.1-    030801 232  0.2-  0.0     040527 415  0.1-  0.2-  

030602 048  0.1+  0.3-    030802 349  0.3+  0.2-    040611 415  0.8-  0.0   

030602 048  0.0   0.3+    030802 349  0.4+  1.1-    040611 415  0.9-  0.8-  

030602 048  0.2-  0.2-    030802 349  0.5-  0.2-    040611 415  1.3-  0.7-  

         **** Don't distribute anyone except personal use only ****

                (C) Copyright 2004 OAA/ComputingSection

write mail from CFAD0::NAKANO on 2004-08-04 23:10:27(JST).

---------------------------------------------------------------------------

    Syuichi Nakano, P. O. Box No. 32, Sumoto, Hyogo-Ken, 656-8691 Japan

     An Associate of the Minor Planet Center   snakano@cfa.harvard.edu

         http://www.oaa.gr.jp/   08-04-2004, 23:27:51 +09:00 (JST)

               OS/2 and Digital UNIX in Operating Systems

             **** Please reply ONLY to nakano@oaa.gr.jp ****





    C/2003 H1 (LINEAR)                                                    

Epoch 2004 Feb. 5.0 TT = JDT 2453040.5  

T 2004 Feb. 22.61779 TT                                 Nakano

q   2.2395903            (2000.0)            P               Q

z  +0.0003037      Peri.  196.13876     -0.97621109     +0.02798387

 +/-0.0000007      Node    19.00002     -0.03284350     +0.96110863

e   0.9993199      Incl.  138.66882     -0.21432033     -0.27474918

From 1590 observations 2003 Apr. 24-2004 Mar. 20, mean residual 0".64.

   (1/a)org.= +0.000762, (1/a)fut.= +0.000469 (+/-0.000001), Q= 7.

Residuals in seconds of arc 

2003/                     030530 A46  0.1-  0.1+    030714 A32  0.0   0.1-  

030424 704  0.2+  0.1-    030530 A01  0.0   0.9-    030715 H41  0.5-  0.0   

030424 704  0.1+  0.2-    030530 A01  1.1+  0.7-    030715 H41  0.7-  0.5+  

030424 704  0.3+  0.5-    030531 246  0.1-  0.1+    030715 340  1.0+  0.2-  

030424 704  0.0   0.4-    030531 246  0.2-  0.1+    030715 340  0.4+  0.7-  

030424 704  0.0   0.3-    030531 246  0.0   0.1+    030715 340  0.2-  0.3-  

030424 151  0.0   0.1+    030531 246  0.1-  0.1+    030715 442 (2.1+  0.9+) 

030424 151  0.6+  0.6+    030531 246  0.2-  0.1+    030715 A46 (2.9+  0.7-) 

030424 151  0.3+  1.0+    030531 246  0.2-  0.1+    030715 A46  1.5+  0.9-  

030424 151  0.1+  0.6+    030531 939  0.3-  0.3-    030715 A46  1.2+  1.1-  

030424 246  0.1-  0.0     030531 939  0.6-  0.5-    030715 A46  1.3+  1.3-  

030424 246  0.1+  0.1-    030531 A02 (2.0+  1.0-)   030715 A46  0.4+  1.0-  

030424 246  0.1+  0.0     030531 939  0.4-  0.6-    030715 A46  0.0   0.6-  

030424 246  0.1+  0.1+    030531 A02 (2.0+  1.5-)   030715 458  0.9+  0.6-  

030424 246  0.2+  0.0     030531 A02 (1.7+  2.0-)   030715 458  0.5+  0.3+  

030424 246  0.2+  0.1-    030531 H72  0.2+  0.3-    030716 H41  1.7-  0.8+  

030424 246  0.2+  0.0     030531 H72  0.0   0.4-    030716 H41  1.2-  0.7+  

030424 118  0.1-  0.2+    030531 H72  0.0   0.4-    030716 442  0.1+  0.3+  

030424 118  0.1-  0.2+    030531 H72  0.5+  0.5-    030716 442  0.3-  0.7+  

030424 118  0.0   0.5+    030531 H72  0.2+  0.1-    030717 H72  0.4+  0.9-  

030424 118  0.1-  0.2+    030531 H72  0.5+  0.0     030717 H72  0.4+  0.8-  

030424 118  0.0   0.4+    030531 H41  0.3+  0.1+    030717 H72  0.0   0.5-  

030425 106  0.4+  0.5-    030531 H41  0.2+  0.4+    030717 H72  1.0+  0.5-  

030425 106  0.3+  0.4-    030531 213  0.3-  0.3-    030717 H72  0.6+  0.7-  

030425 106  0.4+  0.4-    030531 213  0.4+  0.5-    030717 H72  0.0   0.2-  

030425 196  0.2+  0.0     030531 213  0.4+  0.0     030717 H41  0.9-  0.3+  

030425 106  0.3+  0.1+    030601 A32  0.3+  0.3+    030717 H41  0.9-  0.0   

030425 557  0.9+  0.0     030601 A32  0.2+  0.1+    030718 762  1.2-  0.1-  

030425 196  0.7+  0.2+    030601 A32  0.3+  0.1+    030718 762  1.4-  0.0   

030425 196  0.2-  0.6-    030601 333  0.3+  0.3-    030718 762  1.3-  0.1-  

030425 196  0.1+  0.1+    030601 333  0.8+  0.9-    030718 A46  0.4+  0.4-  

030425 557  0.3+  0.1-    030601 333  0.6+  0.3-    030718 A46  0.1+  0.2+  

030425 557  0.5+  0.3-    030601 333  0.6+  1.3-    030718 A46  1.0-  0.7+  

030425 196  0.3+  0.3+    030601 333  0.0   0.5-    030718 A46  0.8-  0.5+  

030425 599  0.1+  0.8+    030601 333  1.4+  1.5-    030718 A46  0.9-  0.6-  

030425 599  0.1+  0.7+    030601 333  0.2-  0.3+    030718 A46  0.5-  0.1+  

030425 599  0.1+  0.5+    030601 333  1.0+  1.0-    030718 442  0.2-  0.3+  

030425 599  0.1+  0.7+    030601 372  1.8-  0.5+    030718 442  0.2-  1.1+  

030425 599  0.3+  0.6+    030601 900  0.4+  0.6-    030718 458  0.7-  0.6-  

030425 854  0.3+  0.1-    030601 349  0.1-  0.1+    030718 458  1.2-  0.3-  

030425 854  0.0   0.2+    030601 349  0.4-  0.0     030718 458  0.4-  1.4-  

030425 854  0.1-  0.2+    030601 349  0.5-  0.0     030718 939  1.7+  0.4-  

030425 854  0.3-  0.0     030601 360  0.7-  0.8+    030718 939  1.6+  0.3-  

030425 926  0.8+  1.2-    030601 360  0.7-  0.7+    030718 939  1.5+  0.4-  

030425 926  0.5+  0.9-    030601 900  0.0   0.3-    030719 235  1.2-  1.1+  

030425 926  0.4+  1.0-    030601 360  0.6-  0.7+    030719 232  1.0-  0.8+  

030425 474  0.2+  0.1+    030601 349  0.5-  0.2+    030719 232  0.8-  0.0   

030425 474  0.2+  0.1-    030601 349  0.1-  0.1+    030719 232  0.5-  0.3-  

030425 474  0.2+  0.3-    030601 379  0.1+  0.5-    030719 048  0.0   0.3-  

030425 213  0.0   0.3+    030601 379  0.1+  0.5-    030719 048  0.5-  0.2-  

030425 213  0.6+  0.2+    030601 379  0.4-  0.5+    030719 048  0.0   0.1-  

030426 213  0.0   0.1-    030601 151  0.1-  0.5+    030719 048  0.5-  0.2+  

030426 049  1.1+  1.1-    030601 151  0.5-  0.5+    030719 048  0.3+  0.4-  

030426 049  0.7+  0.2-    030601 151  0.6-  0.4+    030719 A46  0.1-  0.3-  

030426 049  0.7+  0.4-    030601 151  0.2-  0.3+    030719 A46  0.0   0.3-  

030426 049  0.7+  0.4-    030601 127  1.3+  0.2-    030719 A46  0.3-  0.5-  

030426 049  0.8+  0.4-    030601 127  1.5+  0.2-    030719 A46  0.4-  0.3-  

030426 049  0.8+  0.5-    030601 127  1.4+  0.2-    030719 A46  0.1+  0.4-  

030426 J95  0.3+  0.5+    030601 048  0.3+  0.6+    030719 A46  0.1+  0.3-  

030426 J95  0.1+  0.3+    030601 048  0.3+  0.3+    030719 A32  0.9+  0.5-  

030426 232  0.6+  0.1+    030601 048  0.0   0.2+    030719 A32  0.7+  0.2-  

030426 232  1.3+  0.8+    030601 048  0.3+  0.4+    030719 A32  1.5+  0.3-  

030426 232  1.9+  0.7+    030601 048  0.3-  0.6+    030719 939  0.5+  0.1+  

030426 860  1.7-  1.1+    030601 048  0.1-  0.3+    030719 A32  1.0+  0.8-  

030426 860  0.5-  0.4-    030601 048  0.1-  0.5+    030719 939  0.2+  0.3-  

030426 860  0.1+  1.9+    030601 048  0.3-  0.2+    030719 A32  0.1+  0.1-  

030426 704  0.4+  0.3-    030601 048  0.2-  0.3+    030719 939  0.4+  0.6-  

030426 704  0.0   0.4-    030601 048  0.4-  0.0     030720 H72  1.0+  0.6+  

030426 704  0.5+  0.3-    030602 H72  1.1+  0.6-    030720 H72  1.1+  0.3+  

030426 704  1.2+  0.3-    030602 H72  0.3+  0.2-    030720 H72  0.6+  0.1-  

030426 704  1.1+  0.1-    030602 H72  0.2-  0.6-    030720 H72  1.0+  0.4-  

030427 170  0.3+  0.5+    030602 H72  0.1+  0.5-    030720 A46  0.2-  0.3-  

030427 170  0.2+  0.6+    030602 H72  0.4+  0.5-    030720 A46  0.8-  0.8-  

030427 170  0.3+  0.4+    030602 H72  0.2+  0.5-    030720 A46  0.1-  0.5-  

030427 J95  0.1-  0.2+    030602 H72  0.1+  0.6-    030720 A46  1.0-  0.8-  

030427 J95  0.2+  0.5+    030602 048  0.1+  0.2-    030720 A46  0.1+  0.3-  

030427 H41  0.1+  0.3+    030602 048  0.2-  0.1-    030720 A46  0.1-  0.4-  

030427 H41  0.2+  0.5-    030602 048  0.1+  0.2-    030720 J87  0.0   0.2-  

030427 704  0.5+  0.1+    030602 048  0.0   0.3+    030720 J87  0.1-  0.1+  

030427 850  0.0   0.1-    030602 048  0.2-  0.1-    030720 J87  0.3+  0.2-  

030427 704  0.3+  0.3+    030602 048  0.1+  0.1+    030721 939 (2.1+  0.2-) 

030427 704  0.5+  0.2+    030602 048  0.1+  0.0     030721 939  1.4+  0.2-  

030427 850  0.4+  0.2+    030602 048  0.1+  0.2-    030721 939  1.0+  0.3-  

030427 704  0.6+  0.1+    030602 048  0.3-  0.4+    030722 A32  0.3+  0.0   

030427 349  0.6-  0.6+    030602 048  0.2+  0.1-    030722 A32  0.2-  0.1+  

030427 349  0.0   0.3-    030603 118  0.4-  0.9+    030722 A32  0.3+  0.1+  

030427 349  0.5+  0.1-    030603 118  0.2-  0.8+    030722 A32  0.4-  0.2-  

030427 349  0.4+  0.0     030603 118  0.2-  0.5+    030722 A32  0.1-  0.2-  

030427 340  0.8+  0.2+    030603 118  0.3-  0.7+    030722 619  0.4+  1.6+  

030427 340  0.4+  0.2-    030603 H72  0.7+  0.2-    030723 619(17.9+ 12.0+) 

030427 340  0.0   0.6-    030603 H72  0.4-  0.0     030723 235  0.6-  1.2+  

030427 340  0.2+  0.6-    030603 H72  0.4+  0.4-    030724 372  1.3+  0.5+  

030427 340  0.2+  1.1-    030603 H72  0.2-  0.1-    030724 372  1.1+  0.7+  

030427 340  0.1-  0.2-    030603 H72  0.7+  0.2-    030724 J87  0.3+  0.1+  

030427 A46  0.6+  0.6-    030603 H72  0.1-  0.2-    030724 J87  0.6-  0.0   

030427 A46  0.1+  0.3-    030603 H72  0.4+  0.1+    030724 J87  0.9-  0.1+  

030427 A46  0.1-  0.5-    030603 H41  0.0   0.6+    030725 A46  0.5-  0.2+  

030427 A46  0.8+  0.0     030603 H41  0.5+  0.5+    030725 A46  0.5-  0.5-  

030427 A46  0.3+  0.2+    030603 048  0.0   0.1-    030725 A46  0.1-  0.1+  

